When you browse on this site, cookies collect data to enhance your experience and personalize the content and advertising you see.
Visit our Privacy Policy to learn more. By continuing to use the site, you agree to this use of cookies and data.
  • In Portugal
  • List of Countries
  • For 7 days
  • Water Temperature
  • Weather Map
  • Weather Widgets
  • user-avatar
    Login

    Hourly Weather Baraki Barak

    Today, 5 June, Friday

    Time Temperature Precipitation Wind Pressure Humidity
    00:00 +21°C° 0 mm 2 mps 599 mmHg 32%
    01:00 +20°C° 0 mm 2 mps 598 mmHg 33%
    02:00 +20°C° 0 mm 1 mps 598 mmHg 35%
    03:00 +20°C° 0 mm 1 mps 598 mmHg 36%
    04:00 +19°C° 0 mm 1 mps 597 mmHg 37%
    05:00 +19°C° 0 mm 1 mps 597 mmHg 38%
    06:00 +19°C° 0 mm 2 mps 598 mmHg 34%
    07:00 +20°C° 0 mm 2 mps 598 mmHg 30%
    08:00 +21°C° 0 mm 2 mps 599 mmHg 27%
    09:00 +24°C° 0 mm 2 mps 599 mmHg 24%
    10:00 +25°C° 0 mm 3 mps 600 mmHg 21%
    11:00 +26°C° 0 mm 3 mps 600 mmHg 19%
    12:00 +27°C° 0 mm 4 mps 600 mmHg 18%
    13:00 +28°C° 0 mm 4 mps 600 mmHg 16%
    14:00 +29°C° 0 mm 5 mps 600 mmHg 15%
    15:00 +29°C° 0 mm 6 mps 600 mmHg 14%
    16:00 +31°C° 0 mm 8 mps 600 mmHg 13%
    17:00 +31°C° 0 mm 9 mps 599 mmHg 13%
    18:00 +28°C° 0 mm 8 mps 599 mmHg 15%
    19:00 +27°C° 0 mm 7 mps 599 mmHg 17%
    20:00 +24°C° 0 mm 6 mps 598 mmHg 19%
    21:00 +23°C° 0 mm 5 mps 598 mmHg 21%
    22:00 +22°C° 0 mm 4 mps 598 mmHg 24%
    23:00 +22°C° 0 mm 3 mps 599 mmHg 26%

    Tomorrow, 6 June, Saturday

    Time Temperature Precipitation Wind Pressure Humidity
    00:00 +21°C° 0 mm 2 mps 598 mmHg 27%
    01:00 +20°C° 0 mm 2 mps 598 mmHg 29%
    02:00 +20°C° 0 mm 2 mps 597 mmHg 30%
    03:00 +19°C° 0 mm 2 mps 597 mmHg 31%
    04:00 +19°C° 0 mm 2 mps 597 mmHg 32%
    05:00 +18°C° 0 mm 2 mps 597 mmHg 33%
    06:00 +19°C° 0 mm 2 mps 598 mmHg 30%
    07:00 +21°C° 0 mm 2 mps 598 mmHg 27%
    08:00 +22°C° 0 mm 3 mps 599 mmHg 24%
    09:00 +24°C° 0 mm 3 mps 599 mmHg 20%
    10:00 +26°C° 0 mm 4 mps 600 mmHg 17%
    11:00 +27°C° 0 mm 4 mps 600 mmHg 14%
    12:00 +28°C° 0 mm 4 mps 600 mmHg 12%
    13:00 +29°C° 0 mm 5 mps 600 mmHg 11%
    14:00 +30°C° 0 mm 5 mps 600 mmHg 10%
    15:00 +30°C° 0 mm 6 mps 600 mmHg 10%
    16:00 +30°C° 0 mm 7 mps 600 mmHg 11%
    17:00 +31°C° 0 mm 8 mps 599 mmHg 11%
    18:00 +28°C° 0 mm 7 mps 599 mmHg 14%
    19:00 +27°C° 0 mm 5 mps 599 mmHg 17%
    20:00 +25°C° 0 mm 4 mps 599 mmHg 19%
    21:00 +23°C° 0 mm 4 mps 599 mmHg 20%
    22:00 +22°C° 0 mm 3 mps 599 mmHg 21%
    23:00 +21°C° 0 mm 2 mps 599 mmHg 22%

    Day after tomorrow, 7 June, Sunday

    Time Temperature Precipitation Wind Pressure Humidity
    00:00 +20°C° 0 mm 2 mps 598 mmHg 23%
    01:00 +19°C° 0 mm 2 mps 598 mmHg 24%
    02:00 +20°C° 0 mm 1 mps 597 mmHg 25%
    03:00 +19°C° 0 mm 1 mps 597 mmHg 27%
    04:00 +18°C° 0 mm 1 mps 597 mmHg 29%
    05:00 +16°C° 0 mm 1 mps 596 mmHg 30%
    06:00 +19°C° 0 mm 1 mps 597 mmHg 27%
    07:00 +20°C° 0 mm 1 mps 598 mmHg 24%
    08:00 +22°C° 0 mm 1 mps 599 mmHg 21%
    09:00 +23°C° 0 mm 1 mps 599 mmHg 19%
    10:00 +24°C° 0 mm 1 mps 599 mmHg 16%
    11:00 +26°C° 0 mm 1 mps 600 mmHg 14%
    12:00 +27°C° 0 mm 1 mps 600 mmHg 12%
    13:00 +28°C° 0 mm 1 mps 600 mmHg 11%
    14:00 +29°C° 0 mm 2 mps 600 mmHg 10%
    15:00 +29°C° 0 mm 2 mps 600 mmHg 9%
    16:00 +30°C° 0 mm 2 mps 599 mmHg 9%
    17:00 +30°C° 0 mm 2 mps 599 mmHg 9%
    18:00 +29°C° 0 mm 3 mps 599 mmHg 11%
    19:00 +27°C° 0 mm 4 mps 599 mmHg 13%
    20:00 +26°C° 0 mm 4 mps 598 mmHg 16%
    21:00 +25°C° 0 mm 3 mps 598 mmHg 17%
    22:00 +24°C° 0 mm 2 mps 598 mmHg 19%
    23:00 +23°C° 0 mm 1 mps 599 mmHg 21%

    8 June, Monday

    Time Temperature Precipitation Wind Pressure Humidity
    00:00 +22°C° 0 mm 1 mps 598 mmHg 22%
    01:00 +22°C° 0 mm 1 mps 598 mmHg 24%
    02:00 +21°C° 0 mm 1 mps 597 mmHg 25%
    03:00 +20°C° 0 mm 1 mps 597 mmHg 27%
    04:00 +19°C° 0 mm 1 mps 596 mmHg 28%
    05:00 +17°C° 0 mm 0 mps 596 mmHg 29%
    06:00 +20°C° 0 mm 1 mps 597 mmHg 26%
    07:00 +21°C° 0 mm 1 mps 598 mmHg 23%
    08:00 +23°C° 0 mm 1 mps 598 mmHg 20%
    09:00 +24°C° 0 mm 1 mps 599 mmHg 18%
    10:00 +25°C° 0 mm 1 mps 599 mmHg 16%
    11:00 +27°C° 0 mm 1 mps 599 mmHg 13%
    12:00 +28°C° 0 mm 1 mps 599 mmHg 12%
    13:00 +29°C° 0 mm 1 mps 599 mmHg 11%
    14:00 +30°C° 0 mm 1 mps 600 mmHg 10%
    15:00 +31°C° 0 mm 2 mps 599 mmHg 10%
    16:00 +31°C° 0 mm 3 mps 599 mmHg 10%
    17:00 +33°C° 0 mm 3 mps 599 mmHg 10%
    18:00 +30°C° 0 mm 4 mps 599 mmHg 13%
    19:00 +29°C° 0 mm 4 mps 599 mmHg 15%
    20:00 +27°C° 0 mm 5 mps 599 mmHg 18%
    21:00 +26°C° 0 mm 3 mps 599 mmHg 21%
    22:00 +25°C° 0 mm 2 mps 599 mmHg 24%
    23:00 +24°C° 0 mm 1 mps 598 mmHg 26%

    9 June, Tuesday

    Time Temperature Precipitation Wind Pressure Humidity
    00:00 +23°C° 0 mm 1 mps 598 mmHg 28%
    01:00 +22°C° 0 mm 1 mps 598 mmHg 29%
    02:00 +20°C° 0 mm 0 mps 597 mmHg 31%
    03:00 +19°C° 0 mm 0 mps 597 mmHg 32%
    04:00 +18°C° 0 mm 0 mps 597 mmHg 33%
    05:00 +18°C° 0 mm 0 mps 596 mmHg 34%
    06:00 +19°C° 0 mm 0 mps 597 mmHg 31%
    07:00 +20°C° 0 mm 0 mps 598 mmHg 27%
    08:00 +24°C° 0 mm 1 mps 599 mmHg 24%
    09:00 +25°C° 0 mm 1 mps 599 mmHg 21%
    10:00 +27°C° 0 mm 2 mps 600 mmHg 19%
    11:00 +28°C° 0 mm 3 mps 600 mmHg 16%
    12:00 +30°C° 0 mm 4 mps 600 mmHg 14%
    13:00 +32°C° 0 mm 5 mps 601 mmHg 12%
    14:00 +33°C° 0 mm 6 mps 601 mmHg 10%
    15:00 +33°C° 0 mm 6 mps 600 mmHg 10%
    16:00 +33°C° 0 mm 6 mps 600 mmHg 10%
    17:00 +33°C° 0 mm 7 mps 600 mmHg 10%
    18:00 +30°C° 0 mm 6 mps 599 mmHg 14%
    19:00 +28°C° 0 mm 4 mps 599 mmHg 18%
    20:00 +26°C° 0 mm 3 mps 598 mmHg 23%
    21:00 +25°C° 0 mm 3 mps 598 mmHg 25%
    22:00 +24°C° 0 mm 2 mps 598 mmHg 28%
    23:00 +23°C° 0 mm 1 mps 598 mmHg 30%

    10 June, Wednesday

    Time Temperature Precipitation Wind Pressure Humidity
    00:00 +23°C° 0 mm 1 mps 598 mmHg 33%
    01:00 +22°C° 0 mm 1 mps 598 mmHg 35%
    02:00 +21°C° 0 mm 1 mps 597 mmHg 37%
    03:00 +20°C° 0 mm 1 mps 597 mmHg 39%
    04:00 +20°C° 0 mm 1 mps 597 mmHg 41%
    05:00 +19°C° 0 mm 1 mps 597 mmHg 44%
    06:00 +20°C° 0 mm 1 mps 597 mmHg 41%
    07:00 +21°C° 0 mm 1 mps 598 mmHg 38%
    08:00 +22°C° 0 mm 1 mps 599 mmHg 35%
    09:00 +24°C° 0 mm 1 mps 599 mmHg 31%
    10:00 +25°C° 0 mm 1 mps 600 mmHg 27%
    11:00 +27°C° 0 mm 2 mps 600 mmHg 23%
    12:00 +28°C° 0 mm 1 mps 600 mmHg 20%
    13:00 +29°C° 0 mm 1 mps 600 mmHg 16%
    14:00 +30°C° 0 mm 1 mps 600 mmHg 13%
    15:00 +31°C° 0 mm 2 mps 600 mmHg 12%
    16:00 +31°C° 0 mm 2 mps 600 mmHg 11%
    17:00 +33°C° 0 mm 3 mps 600 mmHg 10%
    18:00 +30°C° 0 mm 3 mps 600 mmHg 13%
    19:00 +28°C° 0 mm 4 mps 600 mmHg 17%
    20:00 +26°C° 0 mm 5 mps 599 mmHg 21%
    21:00 +25°C° 0 mm 4 mps 599 mmHg 22%
    22:00 +25°C° 0 mm 3 mps 599 mmHg 23%
    23:00 +24°C° 0 mm 1 mps 599 mmHg 25%
    Show more